Location: ??
(35.5052°N, 139.7262°E)
Time: 14:10:48
(UTC+00:00)

Cosmos 2278 Rocket - Pass Details

Date: 27 October 2021
Orbit: 841 x 845 km, 71.0° (Epoch: 08 December)

Event Time Altitude Azimuth Distance (km) Brightness Sun altitude
Rises 10:19:07 0° 347° (NNW) 3,408 5.6 -30.6°
Reaches altitude 10° 10:21:46 10° 356° (N) 2,469 4.7 -31.1°
Enters shadow 10:22:36 14° 360° (N) 2,194 4.4 -31.3°
